Погода в Бобуре

Узбекистан     40°15′19″N   69°14′54″E
темп.,
°C
ветер,
м/с
пор.,
м/с
влажн.,
%
обл.,
%
осадки,
мм/ч
давл.,
гПа
погр.,
м
1 марта, пн
пн123:00+6вюв7153831 0.0 1022418
02:00+5вюв61341100 0.0 1021330
05:00+5вюв71441100 0.0 1022285
08:00+6вюв8154033 0.0 1022341
11:00+10вюв12163217 0.0 1020562
14:00+13вюв1014250 0.0 1019593
17:00+13вюв812240 0.0 1019500
20:00+11вюв814290 0.0 1022306
2 марта, вт
вт223:00+10вюв713320 0.0 1023278
02:00+9юв7143267 0.0 1023271
05:00+8вюв7133483 0.0 1022270
08:00+8вюв71336100 0.0 1023283
11:00+13вюв5829100 0.0 1022499
14:00+15в4621100 0.0 1021672
17:00+16св1221100 0.0 1021825
20:00+11ююз0141100 0.0 102329
3 марта, ср
ср323:00+10зюз3345100 0.0 102358
02:00+9з2254100 0.0 102338
05:00+8зюз2263100 0.1 102358
08:00+7ссз1170100 0.1 1023160
11:00+10в0162100 0.2 1022502
14:00+14с224973 0.0 10201159
17:00+14ссз324756 0.0 10201100
20:00+12с3457100 0.2 1021762
4 марта, чт
чт423:00+11в245993 0.3 1022240
02:00+9вюв612700 0.0 1020425
05:00+8вюв1015720 0.0 1020468
08:00+9вюв11167029 0.0 1019532
11:00+12вюв12165464 0.0 1018677
14:00+16вюв9124099 0.0 1017691
17:00+15с343999 0.0 10191406
20:00+12юв4759100 0.5 1020337
5 марта, пт
пт523:00+11вюв346388 0.5 102277
02:00+10зюз5860100 0.0 1022542
05:00+5ссз71085100 0.3 1025565
08:00+2сз3594100 4.8 1028301
11:00+4з3378100 5.3 1027536
14:00+8сз125534 0.0 1024819
17:00+9сз114816 0.0 1023688
20:00+8всв125749 0.0 102339